sat.trackr.live / text

‹ back to catalog

COSMOS 2428

NORAD 31792 · 2007-029A

PAYLOAD ACTIVE UNKNOWN

§ Identity

Operator
Country
CIS
Launch date
2007-06-29
Launch site
TYMSC
Launch vehicle
Mass (kg)
RCS (m²)
6.48

External: N2YO · Heavens-Above · Gunter

§ Orbital elements

Epoch: 2026-09-19T03:49:12.052128Z

Period
101.91 min
Inclination
70.9440°
Eccentricity
0.0011088
Mean motion
14.12977134 rev/d
Perigee alt
841.2 km
Apogee alt
857.2 km
Semi-major
7,227.3 km
B*
2.3778e-5
RAAN
157.1971°
Arg perigee
324.0849°
Mean anomaly
35.9526°
Rev number
99,142

§ Raw data

COSMOS 24281 31792U 07029A   26262.15916727 -.00000004  00000+0  23778-4 0  99912 31792  70.9440 157.1971 0011088 324.0849  35.9526 14.12977134991421

JSON: /api/v1/satellites/31792 · /tle

For live sub-satellite position, see the globe view (requires WebGL).

§ Visibility from observer

Set your observer location to see the next 7 days of passes ≥ 10°. The values pass through the URL so the page stays shareable.

No JS? Fill the form by hand. The geolocation button needs JavaScript.